Location: Bittelbronn
(48.4454°N, 8.5870°E)
Time: 06:41:22
(UTC+00:00)

Cosmos 724 - Pass Details

Date: 10 August 2024
Orbit: 862 x 932 km, 65.6° (Epoch: 07 September)

Event Time Altitude Azimuth Distance (km) Brightness Sun altitude
Rises 03:17:40 0° 167° (SSE) 3,444 7.1 -8.8°
Reaches altitude 10° 03:20:52 10° 149° (SSE) 2,504 6.6 -8.3°
Maximum altitude 03:24:42 18° 107° (ESE) 1,969 6.7 -7.8°
Drops below altitude 10° 03:28:32 10° 66° (ENE) 2,507 8.4 -7.3°
Sets 03:31:44 0° 48° (NE) 3,450 9.6 -6.8°
